Regional Weather Roundup
Issued by NWS

Home | Current Version | Previous Version | Graphics & Text | Print | Product List | Glossary On
Versions: 1 2 3 4 5 6 7 8 9 10 11 12 13 14 15 16 17 18 19 20 21 22 23 24 25 26 27 28 29 30 31 32 33 34 35 36 37 38 39 40 41 42 43 44 45 46 47 48 49 50
000
ASUS45 KCYS 201210
RWRWY

WYOMING REGIONAL WEATHER ROUNDUP
NATIONAL WEATHER SERVICE CHEYENNE WY
600 AM MDT WED AUG 20 2014

NOTE:  "FAIR" INDICATES FEW OR NO CLOUDS BELOW 12,000 FEET
WITH NO SIGNIFICANT WEATHER AND/OR OBSTRUCTIONS TO VISIBILITY.

WYZ001-201300-
YELLOWSTONE NATIONAL PARK

CITY           SKY/WX    TMP DP  RH WIND       PRES   REMARKS
LK YELLOWSTONE   N/A     38  37  97 NW3       30.10R
6HR MIN TEMP:  38; 6HR MAX TEMP:  49;

W YELLOWSTONE  NOT AVBL

$$
WYZ002>013-054>058-071-098>099-201300-
NORTHERN WYOMING

CITY           SKY/WX    TMP DP  RH WIND       PRES   REMARKS
JACKSON        PTCLDY    43  43 100 CALM      30.04R
CODY           CLOUDY    64  43  45 SW12      29.86S
GREYBULL       CLOUDY    66  54  65 CALM      29.78R
6HR MIN TEMP:  65; 6HR MAX TEMP:  74; 6HR PCP: TRACE;

WORLAND        MOCLDY    58  53  84 S5        29.80R
6HR MIN TEMP:  58; 6HR MAX TEMP:  71; 6HR PCP:  0.01;

SHERIDAN       CLOUDY    68  46  45 W7        29.78R
6HR MIN TEMP:  68; 6HR MAX TEMP:  74;

BUFFALO        CLOUDY    67  42  40 N9        29.83R
6HR MIN TEMP:  64; 6HR MAX TEMP:  73; 6HR PCP: TRACE;

GILLETTE       PTCLDY    67  48  50 SW15      29.76R
6HR MIN TEMP:  66; 6HR MAX TEMP:  78;

HULETT         FAIR      72  46  40 MISG      29.78
NEWCASTLE      FAIR      68  46  45 MISG      29.82

$$
WYZ014>020-022>026-101>103-201300-
CENTRAL WYOMING

CITY           SKY/WX    TMP DP  RH WIND       PRES   REMARKS
BIG PINEY      PTCLDY    43  40  89 NW3       30.05R
6HR MIN TEMP:  41; 6HR MAX TEMP:  54;

PINEDALE       MOSUNNY   41  41 100 W6        30.06R
DUBOIS         FAIR      45  41  87 NW12      30.02R
LANDER         CLEAR     57  44  62 NW6       29.89R
6HR MIN TEMP:  56; 6HR MAX TEMP:  66;

RIVERTON       CLEAR     56  42  59 NW9       29.90R
6HR MIN TEMP:  56; 6HR MAX TEMP:  67;

CASPER         MOCLDY    64  51  62 S17G24    29.88R
6HR MIN TEMP:  62; 6HR MAX TEMP:  67;

DOUGLAS        CLOUDY    61  55  81 CALM      29.88F
6HR MIN TEMP:  60; 6HR MAX TEMP:  71; 6HR PCP:  0.02;


$$
WYZ021-027>030-104>119-201300-
SOUTHERN WYOMING

CITY           SKY/WX    TMP DP  RH WIND       PRES   REMARKS
EVANSTON       CLOUDY    52  51  97 SW8       30.09R
6HR MIN TEMP:  51; 6HR MAX TEMP:  54; 6HR PCP: TRACE;

KEMMERER       PTSUNNY   50  45  81 S3        30.08R
FORT BRIDGER     N/A     55  53  91 SW13      30.09S
ROCK SPRINGS   MOCLDY    52  48  86 SW7       30.04S
6HR MIN TEMP:  51; 6HR MAX TEMP:  55;

DIXON          RAIN      57  55  91 SW3       30.07S
RAWLINS        CLOUDY    54  51  90 SW16      30.03R
6HR MIN TEMP:  54; 6HR MAX TEMP:  62; 6HR PCP:  0.04;

SARATOGA       LGT RAIN  54  52  94 MISG      30.07R
LARAMIE        MOCLDY    54  48  80 S10       30.04F
6HR MIN TEMP:  52; 6HR MAX TEMP:  57; 6HR PCP:  0.04;

CHEYENNE       CLOUDY    63  48  58 W8        29.96S
6HR MIN TEMP:  60; 6HR MAX TEMP:  64; 6HR PCP: TRACE;

TORRINGTON     LGT RAIN  67  54  63 W9        29.84R
6HR MIN TEMP:  66; 6HR MAX TEMP:  69; 6HR PCP: TRACE;

PINE BLUFFS    FAIR      59  55  88 CALM      29.90F

$$



USA.gov is the U.S. government's official web portal to all federal, state and local government web resources and services.